Weather History for KHSP - February, 2011

Change the Weather History Date:

Wednesday, February 16, 2011

  Actual Average Record
Temperature  
Mean Temperature 43 °F -  
Max Temperature 53 °F 36 °F 57 °F (2006)
Min Temperature 33 °F 21 °F 0 °F (2015)
Degree Days  
Heating Degree Days 22    
Moisture  
Dew Point 21 °F    
Average Humidity 42    
Maximum Humidity 49    
Minimum Humidity 32    
Precipitation  
Precipitation 0.00 in - - ()
Sea Level Pressure  
Sea Level Pressure 30.27 in    
Wind  
Wind Speed 12 mph (SSW)    
Max Wind Speed 17 mph    
Max Gust Speed 22 mph    
Visibility 10 miles    
Events      
Averages and records for this station are not official NWS values.
T = Trace of Precipitation, MM = Missing Value Source: NWS Daily Summary

Daily Weather History Graph

Daily Weather History Graph

Search for Another Location

Airport or City:

Trip Planner

Search our weather history database for the weather conditions in past years. The results will help you decide how hot, cold, wet, or windy it might be!

Date:

Astronomy

Feb. 16, 2011 Rise Set
Actual Time 7:08 AM EST 5:58 PM EST
Civil Twilight 6:41 AM EST 6:25 PM EST
Nautical Twilight 6:10 AM EST 6:56 PM EST
Astronomical Twilight 5:40 AM EST 7:27 PM EST
Moon 4:20 PM EST (2/16) 5:41 AM EST (2/16)
Length of Visible Light 11h 44m
Length of Day
10h 50m
Waxing Gibbous, 96% of the Moon is Illuminated
Feb 16
Waxing Gibbous
Feb 18
Full
Feb 24
Last Quarter
Mar 4
New
Mar 12
First Quarter

Hourly Weather History & Observations

Time (EST) Temp. Windchill Dew Point Humidity Pressure Visibility Wind Dir Wind Speed Gust Speed Precip Events Conditions
12:00 AM 35.6 °F 27.5 °F 15.8 °F 44% 30.30 in 10.0 mi South 11.5 mph 16.1 mph N/A   Clear
12:20 AM 35.6 °F 26.6 °F 15.8 °F 44% 30.30 in 10.0 mi South 13.8 mph 18.4 mph N/A   Clear
12:40 AM 35.6 °F 26.6 °F 15.8 °F 44% 30.30 in 10.0 mi South 13.8 mph 20.7 mph N/A   Clear
1:00 AM 35.6 °F 26.6 °F 15.8 °F 44% 30.30 in 10.0 mi South 13.8 mph 19.6 mph N/A   Clear
1:20 AM 33.8 °F 24.8 °F 15.8 °F 48% 30.30 in 10.0 mi South 12.7 mph 19.6 mph N/A   Clear
1:40 AM 33.8 °F 23.9 °F 15.8 °F 48% 30.30 in 10.0 mi South 15.0 mph - N/A   Clear
2:00 AM 33.8 °F 24.8 °F 15.8 °F 48% 30.30 in 10.0 mi South 12.7 mph 18.4 mph N/A   Clear
2:20 AM 33.8 °F 24.8 °F 15.8 °F 48% 30.30 in 10.0 mi South 12.7 mph 16.1 mph N/A   Clear
2:40 AM 35.6 °F 29.2 °F 15.8 °F 44% 30.31 in 10.0 mi SSW 8.1 mph - N/A   Clear
3:00 AM 33.8 °F 26.4 °F 15.8 °F 48% 30.30 in 10.0 mi SSW 9.2 mph - N/A   Clear
3:20 AM 35.6 °F 28.6 °F 15.8 °F 44% 30.29 in 10.0 mi South 9.2 mph - N/A   Clear
4:00 AM 33.8 °F 27.0 °F 15.8 °F 48% 30.28 in 10.0 mi SSW 8.1 mph - N/A   Clear
4:20 AM 33.8 °F 27.0 °F 15.8 °F 48% 30.28 in 10.0 mi SSW 8.1 mph - N/A   Clear
4:40 AM 35.6 °F 28.0 °F 17.6 °F 48% 30.28 in 10.0 mi SSW 10.4 mph - N/A   Clear
5:00 AM 35.6 °F 27.1 °F 17.6 °F 48% 30.28 in 10.0 mi SW 12.7 mph 18.4 mph N/A   Clear
5:20 AM 35.6 °F 28.6 °F 17.6 °F 48% 30.28 in 10.0 mi SW 9.2 mph - N/A   Clear
6:00 AM 35.6 °F 27.1 °F 17.6 °F 48% 30.28 in 10.0 mi SW 12.7 mph - N/A   Clear
6:20 AM 35.6 °F 28.0 °F 17.6 °F 48% 30.28 in 10.0 mi SW 10.4 mph - N/A   Clear
6:40 AM 35.6 °F 26.6 °F 17.6 °F 48% 30.28 in 10.0 mi SW 13.8 mph 18.4 mph N/A   Clear
7:00 AM 35.6 °F 27.5 °F 17.6 °F 48% 30.28 in 10.0 mi SW 11.5 mph - N/A   Clear
7:20 AM 35.6 °F 27.1 °F 17.6 °F 48% 30.28 in 10.0 mi SW 12.7 mph - N/A   Clear
7:40 AM 35.6 °F 27.1 °F 17.6 °F 48% 30.28 in 10.0 mi SW 12.7 mph 18.4 mph N/A   Clear
8:00 AM 37.4 °F 28.9 °F 19.4 °F 48% 30.29 in 10.0 mi SW 13.8 mph 19.6 mph N/A   Clear
8:20 AM 37.4 °F 29.3 °F 19.4 °F 48% 30.29 in 10.0 mi WSW 12.7 mph - N/A   Clear
9:00 AM 41.0 °F 33.5 °F 17.6 °F 39% 30.29 in 10.0 mi WSW 13.8 mph - N/A   Clear
9:20 AM 42.8 °F 35.8 °F 17.6 °F 36% 30.29 in 10.0 mi WSW 13.8 mph - N/A   Clear
9:40 AM 44.6 °F 37.4 °F 17.6 °F 34% 30.29 in 10.0 mi WSW 16.1 mph - N/A   Clear
10:00 AM 44.6 °F 37.8 °F 17.6 °F 34% 30.29 in 10.0 mi WSW 15.0 mph - N/A   Clear
10:20 AM 44.6 °F 37.2 °F 17.6 °F 34% 30.28 in 10.0 mi West 17.3 mph 21.9 mph N/A   Clear
10:40 AM 44.6 °F 38.4 °F 17.6 °F 34% 30.29 in 10.0 mi West 12.7 mph - N/A   Clear
11:00 AM 44.6 °F 38.1 °F 17.6 °F 34% 30.30 in 10.0 mi WSW 13.8 mph - N/A   Clear
11:20 AM 44.6 °F 38.4 °F 19.4 °F 37% 30.29 in 10.0 mi West 12.7 mph - N/A   Clear
11:40 AM 46.4 °F 40.7 °F 19.4 °F 34% 30.29 in 10.0 mi WSW 12.7 mph - N/A   Clear
12:00 PM 46.4 °F 40.4 °F 19.4 °F 34% 30.29 in 10.0 mi WSW 13.8 mph - N/A   Clear
12:20 PM 48.2 °F - 21.2 °F 34% 30.28 in 10.0 mi WSW 11.5 mph 18.4 mph N/A   Clear
12:40 PM 50.0 °F - 21.2 °F 32% 30.27 in 10.0 mi WSW 12.7 mph - N/A   Clear
1:00 PM 51.8 °F - 23.0 °F 33% 30.26 in 10.0 mi WSW 12.7 mph 17.3 mph N/A   Clear
1:20 PM 51.8 °F - 24.8 °F 35% 30.25 in 10.0 mi WSW 10.4 mph 18.4 mph N/A   Clear
1:40 PM 53.6 °F - 24.8 °F 33% 30.25 in 10.0 mi West 10.4 mph 18.4 mph N/A   Clear
2:00 PM 53.6 °F - 24.8 °F 33% 30.24 in 10.0 mi West 11.5 mph 17.3 mph N/A   Clear
2:20 PM 53.6 °F - 24.8 °F 33% 30.24 in 10.0 mi West 8.1 mph 19.6 mph N/A   Clear
2:40 PM 53.6 °F - 24.8 °F 33% 30.23 in 10.0 mi WSW 9.2 mph - N/A   Clear
3:00 PM 51.8 °F - 24.8 °F 35% 30.22 in 10.0 mi South 6.9 mph - N/A   Clear
3:20 PM 51.8 °F - 24.8 °F 35% 30.22 in 10.0 mi South 6.9 mph - N/A   Mostly Cloudy
3:40 PM 51.8 °F - 24.8 °F 35% 30.22 in 10.0 mi South 5.8 mph - N/A   Scattered Clouds
4:00 PM 51.8 °F - 24.8 °F 35% 30.22 in 10.0 mi South 5.8 mph - N/A   Clear
4:20 PM 51.8 °F - 24.8 °F 35% 30.22 in 10.0 mi South 10.4 mph - N/A   Clear
4:40 PM 51.8 °F - 24.8 °F 35% 30.22 in 10.0 mi South 10.4 mph - N/A   Clear
5:00 PM 50.0 °F - 24.8 °F 37% 30.22 in 10.0 mi South 8.1 mph - N/A   Clear
5:20 PM 48.2 °F - 24.8 °F 40% 30.22 in 10.0 mi South 8.1 mph - N/A   Clear
5:40 PM 48.2 °F - 24.8 °F 40% 30.23 in 10.0 mi South 6.9 mph - N/A   Clear
6:00 PM 46.4 °F 41.9 °F 26.6 °F 46% 30.23 in 10.0 mi South 9.2 mph - N/A   Clear
6:20 PM 46.4 °F 41.5 °F 26.6 °F 46% 30.23 in 10.0 mi South 10.4 mph - N/A   Clear
6:40 PM 46.4 °F 41.5 °F 26.6 °F 46% 30.24 in 10.0 mi South 10.4 mph - N/A   Clear
7:00 PM 46.4 °F 40.4 °F 26.6 °F 46% 30.24 in 10.0 mi South 13.8 mph 17.3 mph N/A   Clear
7:20 PM 46.4 °F 41.1 °F 26.6 °F 46% 30.24 in 10.0 mi South 11.5 mph 17.3 mph N/A   Clear
7:40 PM 44.6 °F 39.2 °F 26.6 °F 49% 30.24 in 10.0 mi South 10.4 mph - N/A   Clear
8:00 PM 44.6 °F 39.7 °F 26.6 °F 49% 30.24 in 10.0 mi South 9.2 mph 17.3 mph N/A   Clear
8:20 PM 44.6 °F 40.2 °F 26.6 °F 49% 30.24 in 10.0 mi South 8.1 mph - N/A   Clear
8:40 PM 44.6 °F 39.7 °F 26.6 °F 49% 30.25 in 10.0 mi SSW 9.2 mph - N/A   Clear
9:00 PM 44.6 °F 40.2 °F 26.6 °F 49% 30.25 in 10.0 mi SSW 8.1 mph - N/A   Clear
9:20 PM 44.6 °F 39.7 °F 26.6 °F 49% 30.25 in 10.0 mi SSW 9.2 mph - N/A   Clear
9:40 PM 46.4 °F 41.9 °F 26.6 °F 46% 30.26 in 10.0 mi South 9.2 mph - N/A   Clear
10:00 PM 46.4 °F 42.4 °F 26.6 °F 46% 30.25 in 10.0 mi SSW 8.1 mph - N/A   Clear
10:20 PM 46.4 °F 41.9 °F 28.4 °F 50% 30.25 in 10.0 mi SW 9.2 mph 16.1 mph N/A   Clear
10:40 PM 46.4 °F 41.1 °F 28.4 °F 50% 30.26 in 10.0 mi SW 11.5 mph - N/A   Clear
11:00 PM 46.4 °F 41.1 °F 30.2 °F 53% 30.26 in 10.0 mi SW 11.5 mph - N/A   Clear
11:20 PM 46.4 °F 41.5 °F 30.2 °F 53% 30.26 in 10.0 mi SW 10.4 mph - N/A   Clear
11:40 PM 46.4 °F 41.9 °F 30.2 °F 53% 30.26 in 10.0 mi SW 9.2 mph - N/A   Clear